Location: Zagreb
(45.8000°N, 16.0000°E)
Time: 00:49:40
(UTC+01:00)

Altair - All Passes

Search period start: 26 January 2020 00:00
Search period end: 05 February 2020 00:00
Orbit: 1502 x 1682 km, 47.2° (Epoch: 25 January)

Date Brightness Start Highest point End Pass type
(mag) Time Alt. Az. Time Alt. Az. Time Alt. Az.
26 Jan - 06:24:34 10° S 06:32:07 25° SE 06:39:46 10° E visible
26 Jan - 08:25:42 10° SW 08:35:35 65° SSE 08:45:36 10° ENE daylight
26 Jan - 10:30:14 10° W 10:40:27 84° N 10:50:39 10° E daylight
26 Jan - 12:35:29 10° WNW 12:45:43 87° SSW 12:55:46 10° ESE daylight
26 Jan - 14:40:37 10° WNW 14:50:01 46° SW 14:59:11 10° SSE daylight
26 Jan - 16:48:53 10° W 16:52:45 13° WSW 16:56:34 10° SW daylight
27 Jan - 05:59:54 10° S 06:07:03 23° SE 06:14:20 10° E visible
27 Jan - 08:00:37 10° SW 08:10:24 62° SSE 08:20:22 10° ENE daylight
27 Jan - 10:05:01 10° W 10:15:12 85° N 10:25:25 10° E daylight
27 Jan - 12:10:15 10° WNW 12:20:30 89° SSW 12:30:34 10° ESE daylight
27 Jan - 14:15:21 10° WNW 14:24:54 49° SW 14:34:13 10° SSE daylight
27 Jan - 16:22:54 10° W 16:27:45 15° WSW 16:32:32 10° SSW daylight
28 Jan - 05:35:19 10° S 05:42:01 21° SE 05:48:49 10° E visible
28 Jan - 07:35:33 10° SW 07:45:15 58° SSE 07:55:08 10° ENE daylight
28 Jan - 09:39:47 10° W 09:49:58 86° N 10:00:11 10° E daylight
28 Jan - 11:45:01 10° WNW 11:55:16 89° NNE 12:05:23 10° ESE daylight
28 Jan - 13:50:06 10° WNW 13:59:47 52° SW 14:09:13 10° SE daylight
28 Jan - 15:57:08 10° W 16:02:44 17° SW 16:08:17 10° SSW daylight
29 Jan - 05:10:49 10° SSE 05:17:00 19° SE 05:23:16 10° E visible
29 Jan - 07:10:31 10° SW 07:20:06 55° SE 07:29:54 10° ENE daylight
29 Jan - 09:14:33 10° WSW 09:24:43 88° NNW 09:34:58 10° E daylight
29 Jan - 11:19:47 10° W 11:30:02 88° NNE 11:40:10 10° ESE daylight
29 Jan - 13:24:51 10° WNW 13:34:38 55° SW 13:44:12 10° SE daylight
29 Jan - 15:31:29 10° W 15:37:44 19° SW 15:43:54 10° SSW daylight
30 Jan - 04:46:25 10° SSE 04:51:59 17° SE 04:57:37 10° E visible
30 Jan - 06:45:29 10° SW 06:54:58 52° SE 07:04:39 10° ENE visible
30 Jan - 08:49:21 10° WSW 08:59:29 89° NNW 09:09:44 10° ENE daylight
30 Jan - 10:54:33 10° W 11:04:47 86° N 11:14:57 10° E daylight
30 Jan - 12:59:36 10° WNW 13:09:29 58° SSW 13:19:10 10° SE daylight
30 Jan - 15:05:55 10° W 15:12:42 21° SW 15:19:24 10° S daylight
31 Jan - 04:22:10 10° SSE 04:26:59 15° ESE 04:31:51 10° E visible
31 Jan - 06:20:30 10° SSW 06:29:50 49° SE 06:39:24 10° ENE visible
31 Jan - 08:24:09 10° WSW 08:34:15 89° SSE 08:44:30 10° ENE daylight
31 Jan - 10:29:19 10° W 10:39:33 85° N 10:49:44 10° E daylight
31 Jan - 12:34:22 10° WNW 12:44:20 62° SSW 12:54:06 10° SE daylight
31 Jan - 14:40:26 10° W 14:47:40 23° SW 14:54:49 10° S daylight
01 Feb - 03:58:08 10° SE 04:01:59 13° ESE 04:05:52 10° E visible
01 Feb - 05:55:32 10° SSW 06:04:43 46° SE 06:14:08 10° ENE visible
01 Feb - 07:58:57 10° WSW 08:09:01 87° SSE 08:19:16 10° ENE daylight
01 Feb - 10:04:05 10° W 10:14:17 84° N 10:24:30 10° E daylight
01 Feb - 12:09:09 10° WNW 12:19:10 65° SSW 12:29:01 10° SE daylight
01 Feb - 14:14:59 10° W 14:22:37 25° SW 14:30:10 10° S daylight
02 Feb - 03:34:34 10° SE 03:37:00 11° ESE 03:39:26 10° ESE visible
02 Feb - 05:30:35 10° SSW 05:39:36 43° SE 05:48:52 10° ENE visible
02 Feb - 07:33:46 10° WSW 07:43:48 84° SSE 07:54:02 10° ENE daylight
02 Feb - 09:38:50 10° W 09:49:02 83° N 09:59:16 10° E daylight
02 Feb - 11:43:55 10° WNW 11:53:59 68° SSW 12:03:55 10° SE daylight
02 Feb - 13:49:35 10° WNW 13:57:35 28° SW 14:05:27 10° S daylight
03 Feb - 05:05:40 10° SSW 05:14:31 40° SE 05:23:35 10° ENE visible
03 Feb - 07:08:37 10° WSW 07:18:35 82° SSE 07:28:48 10° ENE daylight
03 Feb - 09:13:38 10° W 09:23:47 83° N 09:34:01 10° E daylight
03 Feb - 11:18:42 10° WNW 11:28:48 71° SSW 11:38:48 10° SE daylight
03 Feb - 13:24:12 10° WNW 13:32:31 30° SW 13:40:41 10° S daylight
04 Feb - 04:40:48 10° SSW 04:49:26 37° SE 04:58:17 10° ENE visible
04 Feb - 06:43:28 10° WSW 06:53:23 79° SSE 07:03:34 10° ENE visible
04 Feb - 08:48:24 10° W 08:58:32 83° N 09:08:46 10° E daylight
04 Feb - 10:53:29 10° WNW 11:03:36 74° SSW 11:13:40 10° ESE daylight
04 Feb - 12:58:52 10° WNW 13:07:26 32° SW 13:15:53 10° SSE daylight
